Weather History for Plant City, FL

Change the Weather History Date:

Friday, December 21, 2012

  Actual Average Record
Temperature  
Mean Temperature 56 °F -  
Max Temperature 71 °F 73 °F 86 °F (1967)
Min Temperature 42 °F 51 °F 27 °F (1935)
Degree Days  
Heating Degree Days 8    
Growing Degree Days 6 (Base 50)    
Moisture  
Dew Point 39 °F    
Average Humidity 56    
Maximum Humidity 100    
Minimum Humidity 26    
Precipitation  
Precipitation 0.01 in - - ()
Sea Level Pressure  
Sea Level Pressure 30.15 in    
Wind  
Wind Speed 11 mph (NW)    
Max Wind Speed 18 mph    
Max Gust Speed 28 mph    
Visibility 10 miles    
Events Rain    
Averages and records for this station are not official NWS values.
T = Trace of Precipitation, MM = Missing Value Source: NWS Daily Summary

Daily Weather History Graph

Daily Weather History Graph

Search for Another Location

Airport:

Trip Planner

Search our weather history database for the weather conditions in past years. The results will help you decide how hot, cold, wet, or windy it might be!

Date:

Astronomy

Dec. 21, 2012 Rise Set
Actual Time 7:16 AM EST 5:38 PM EST
Civil Twilight 6:50 AM EST 6:03 PM EST
Nautical Twilight 6:20 AM EST 6:33 PM EST
Astronomical Twilight 5:52 AM EST 7:01 PM EST
Moon 1:05 PM EST 1:22 AM EST
Length of Visible Light 11h 13m
Length of Day
10h 22m
Waxing Gibbous, 64% of the Moon is Illuminated
Dec 21
Waxing Gibbous
Dec 28
Full
Jan 4
Last Quarter
Jan 11
New
Jan 18
First Quarter

Hourly Weather History & Observations

Time (EST) Temp. Windchill Dew Point Humidity Pressure Visibility Wind Dir Wind Speed Gust Speed Precip Events Conditions
12:15 AM 71.6 °F - - N/A% 29.99 in 10.0 mi WSW 11.5 mph - N/A Rain Light Rain
12:35 AM 69.8 °F - - N/A% 30.00 in 5.0 mi WNW 15.0 mph 26.5 mph 0.01 in   Light Drizzle
12:55 AM 68.0 °F - - N/A% 30.01 in 10.0 mi WNW 15.0 mph 23.0 mph 0.01 in   Overcast
1:15 AM 68.0 °F - - N/A% 30.01 in 7.0 mi WNW 9.2 mph - N/A   Overcast
1:35 AM 68.0 °F - 68.0 °F 100% 30.01 in 7.0 mi WNW 11.5 mph 18.4 mph N/A   Overcast
1:55 AM 66.2 °F - 60.8 °F 83% 30.02 in 10.0 mi NW 13.8 mph 20.7 mph N/A   Mostly Cloudy
2:15 AM 64.4 °F - 55.4 °F 73% 30.02 in 10.0 mi NW 10.4 mph 24.2 mph N/A   Scattered Clouds
2:35 AM 64.4 °F - 51.8 °F 64% 30.03 in 10.0 mi NW 12.7 mph 17.3 mph N/A   Scattered Clouds
2:55 AM 62.6 °F - 50.0 °F 63% 30.03 in 10.0 mi WNW 10.4 mph 19.6 mph N/A   Clear
3:15 AM 62.6 °F - 50.0 °F 63% 30.04 in 10.0 mi NW 12.7 mph 18.4 mph N/A   Clear
3:35 AM 60.8 °F - 50.0 °F 68% 30.05 in 10.0 mi NW 12.7 mph 20.7 mph N/A   Clear
3:55 AM 60.8 °F - 48.2 °F 63% 30.06 in 10.0 mi NW 11.5 mph 21.9 mph N/A   Clear
4:15 AM 59.0 °F - 46.4 °F 63% 30.06 in 10.0 mi NW 12.7 mph 20.7 mph N/A   Scattered Clouds
4:35 AM 57.2 °F - 46.4 °F 67% 30.07 in 10.0 mi NW 11.5 mph 23.0 mph N/A   Clear
4:55 AM 57.2 °F - 46.4 °F 67% 30.08 in 10.0 mi NW 16.1 mph 21.9 mph N/A   Clear
5:15 AM 55.4 °F - 46.4 °F 72% 30.09 in 10.0 mi NW 8.1 mph - N/A   Scattered Clouds
5:35 AM 55.4 °F - 46.4 °F 72% 30.09 in 10.0 mi NW 11.5 mph - N/A   Scattered Clouds
5:55 AM 55.4 °F - 44.6 °F 67% 30.10 in 10.0 mi NW 13.8 mph 21.9 mph N/A   Clear
6:15 AM 55.4 °F - 44.6 °F 67% 30.11 in 10.0 mi NW 13.8 mph 23.0 mph N/A   Clear
6:35 AM 53.6 °F - 44.6 °F 72% 30.12 in 10.0 mi NW 11.5 mph - N/A   Clear
6:55 AM 53.6 °F - 42.8 °F 67% 30.12 in 10.0 mi NNW 9.2 mph - N/A   Clear
7:15 AM 53.6 °F - 42.8 °F 67% 30.13 in 10.0 mi NW 10.4 mph - N/A   Clear
7:35 AM 53.6 °F - 42.8 °F 67% 30.14 in 10.0 mi NW 8.1 mph - N/A   Clear
7:55 AM 53.6 °F - 41.0 °F 62% 30.15 in 10.0 mi NW 10.4 mph 16.1 mph N/A   Clear
8:15 AM 53.6 °F - 41.0 °F 62% 30.16 in 10.0 mi North 5.8 mph - N/A   Clear
8:35 AM 53.6 °F - 42.8 °F 67% 30.17 in 10.0 mi NNW 5.8 mph - N/A   Clear
8:55 AM 55.4 °F - 41.0 °F 58% 30.18 in 10.0 mi NNW 10.4 mph 16.1 mph N/A   Clear
9:15 AM 55.4 °F - 35.6 °F 47% 30.19 in 10.0 mi NW 16.1 mph 27.6 mph N/A   Clear
9:35 AM 57.2 °F - 35.6 °F 44% 30.20 in 10.0 mi NW 13.8 mph 23.0 mph N/A   Clear
9:55 AM 59.0 °F - 35.6 °F 42% 30.20 in 10.0 mi NW 12.7 mph 19.6 mph N/A   Clear
10:15 AM 59.0 °F - 33.8 °F 39% 30.20 in 10.0 mi NW 15.0 mph 23.0 mph N/A   Clear
10:35 AM 59.0 °F - 33.8 °F 39% 30.20 in 10.0 mi NW 13.8 mph 19.6 mph N/A   Clear
10:55 AM 59.0 °F - 32.0 °F 36% 30.20 in 10.0 mi NNW 17.3 mph 24.2 mph N/A   Clear
11:15 AM 60.8 °F - 33.8 °F 36% 30.19 in 10.0 mi NW 15.0 mph 21.9 mph N/A   Clear
11:35 AM 60.8 °F - 32.0 °F 34% 30.19 in 10.0 mi NNW 12.7 mph 18.4 mph N/A   Clear
11:55 AM 60.8 °F - 33.8 °F 36% 30.19 in 10.0 mi NW 17.3 mph 23.0 mph N/A   Clear
12:15 PM 60.8 °F - 33.8 °F 36% 30.18 in 10.0 mi WNW 16.1 mph 23.0 mph N/A   Clear
12:35 PM 60.8 °F - 32.0 °F 34% 30.17 in 10.0 mi NW 12.7 mph 25.3 mph N/A   Clear
12:55 PM 60.8 °F - 32.0 °F 34% 30.17 in 10.0 mi NW 15.0 mph 21.9 mph N/A   Clear
1:15 PM 62.6 °F - 30.2 °F 30% 30.16 in 10.0 mi NW 13.8 mph 21.9 mph N/A   Clear
1:35 PM 62.6 °F - 32.0 °F 32% 30.15 in 10.0 mi WNW 15.0 mph 20.7 mph N/A   Clear
1:55 PM 62.6 °F - 26.6 °F 26% 30.14 in 10.0 mi NW 12.7 mph 24.2 mph N/A   Clear
2:15 PM 62.6 °F - 28.4 °F 27% 30.14 in 10.0 mi WNW 16.1 mph 20.7 mph N/A   Clear
2:35 PM 62.6 °F - 30.2 °F 30% 30.14 in 10.0 mi WNW 15.0 mph 18.4 mph N/A   Clear
2:55 PM 60.8 °F - 26.6 °F 27% 30.14 in 10.0 mi NW 15.0 mph 24.2 mph N/A   Clear
3:15 PM 60.8 °F - 26.6 °F 27% 30.13 in 10.0 mi WNW 15.0 mph 24.2 mph N/A   Clear
3:35 PM 60.8 °F - 28.4 °F 29% 30.13 in 10.0 mi WNW 15.0 mph 23.0 mph N/A   Clear
3:55 PM 59.0 °F - 30.2 °F 34% 30.14 in 10.0 mi WNW 18.4 mph 24.2 mph N/A   Clear
4:15 PM 59.0 °F - 32.0 °F 36% 30.14 in 10.0 mi WNW 16.1 mph 23.0 mph N/A   Clear
4:35 PM 59.0 °F - 35.6 °F 42% 30.15 in 10.0 mi NW 13.8 mph 21.9 mph N/A   Clear
4:55 PM 57.2 °F - 33.8 °F 41% 30.16 in 10.0 mi NW 18.4 mph 25.3 mph N/A   Clear
5:15 PM 55.4 °F - 35.6 °F 47% 30.17 in 10.0 mi NW 11.5 mph 21.9 mph N/A   Clear
5:35 PM 55.4 °F - 35.6 °F 47% 30.17 in 10.0 mi WNW 9.2 mph - N/A   Clear
5:55 PM 53.6 °F - 33.8 °F 47% 30.17 in 10.0 mi NW 11.5 mph 19.6 mph N/A   Clear
6:15 PM 53.6 °F - 35.6 °F 51% 30.18 in 10.0 mi NW 6.9 mph - N/A   Clear
6:35 PM 51.8 °F - 35.6 °F 54% 30.18 in 10.0 mi NW 6.9 mph - N/A   Clear
6:55 PM 51.8 °F - 35.6 °F 54% 30.19 in 10.0 mi NW 5.8 mph - N/A   Clear
7:15 PM 51.8 °F - 37.4 °F 58% 30.20 in 10.0 mi NW 3.5 mph - N/A   Clear
7:35 PM 50.0 °F - 37.4 °F 62% 30.20 in 10.0 mi NW 4.6 mph - N/A   Clear
7:55 PM 50.0 °F - 37.4 °F 62% 30.21 in 10.0 mi NW 3.5 mph - N/A   Clear
8:15 PM 50.0 °F - 37.4 °F 62% 30.21 in 10.0 mi Calm Calm - N/A   Clear
8:35 PM 48.2 °F - 37.4 °F 66% 30.22 in 10.0 mi NW 3.5 mph - N/A   Clear
8:55 PM 48.2 °F - 37.4 °F 66% 30.22 in 10.0 mi Calm Calm - N/A   Clear
9:15 PM 48.2 °F - 39.2 °F 71% 30.23 in 10.0 mi Calm Calm - N/A   Clear
9:35 PM 46.4 °F - 37.4 °F 71% 30.23 in 10.0 mi Calm Calm - N/A   Clear
9:55 PM 46.4 °F 45.2 °F 37.4 °F 71% 30.24 in 10.0 mi NW 3.5 mph - N/A   Clear
10:15 PM 46.4 °F - 39.2 °F 76% 30.24 in 10.0 mi Calm Calm - N/A   Clear
10:35 PM 42.8 °F - 39.2 °F 87% 30.24 in 10.0 mi Calm Calm - N/A   Clear
10:55 PM 42.8 °F 41.1 °F 39.2 °F 87% 30.24 in 10.0 mi WNW 3.5 mph - N/A   Clear
11:15 PM 44.6 °F - 39.2 °F 81% 30.24 in 10.0 mi Calm Calm - N/A   Clear
11:35 PM 42.8 °F - 37.4 °F 81% 30.24 in 10.0 mi Calm Calm - N/A   Clear
11:55 PM 42.8 °F - 39.2 °F 87% 30.25 in 10.0 mi Calm Calm - N/A   Clear